シュピターラー彗星

113P/Spitaler (2001)

English version
Home page
Updated on March 11, 2009

---------------------------------------------------------------------

・ プロフィール

・ 軌道要素

Epoch 2001 Feb. 20.0 TT = JDT 2451960.5  
T 2001 Feb. 25.86428 TT                                 Muraoka 
q   2.1271932            (2000.0)            P               Q
n   0.13903346     Peri.   50.06387     +0.43009967     -0.90242856
a   3.6902560      Node    14.52419     +0.79456112     +0.36512204
e   0.4235649      Incl.    5.77572     +0.42858709     +0.22871070
P   7.09
From 153 observations 1890-2000, mean residual 1".58.

・ 星図

・ 光度変化

        m1 = 13.5 + 5 logΔ + 10.0 log r(t - 40)

---------------------------------------------------------------------

軌道要素は村岡健治氏の計算によるものです。
星図は StellaNavigator Ver.2.0 for Windows (アストロアーツ 編著 / アスキー出版局刊) で作成したものです。
光度グラフはComet for Windowsで作成したものです。

---------------------------------------------------------------------

Copyright(C) Seiichi Yoshida (comet@aerith.net). All rights reserved.